Regional Weather Roundup
Issued by NWS Northern Indiana

Home | Current Version | Previous Version | Graphics & Text | Print | Product List | Glossary On
Versions: 1 2 3 4 5 6 7 8 9 10 11 12 13 14 15 16 17 18 19 20 21 22 23 24 25 26 27 28 29 30 31 32 33 34 35 36 37 38 39 40 41 42 43 44 45 46 47 48 49 50
000
ASUS43 KIWX 051200
RWRIWX

KIWX WEATHER ROUNDUP
NATIONAL WEATHER SERVICE NORTHERN INDIANA
800 AM EDT TUE MAY 05 2015

NOTE: "FAIR" INDICATES FEW OR NO CLOUDS BELOW 12,000 FEET WITH NO
SIGNIFICANT WEATHER AND/OR OBSTRUCTIONS TO VISIBILITY.

* THESE STATIONS ARE NOT UNDER NWS QUALITY CONTROL. THEY ALSO MAY NOT
  REPORT WEATHER SUCH AS PRECIPITATION OR FOG.

INZ001>027-051300-
NORTHERN INDIANA

CITY           SKY/WX    TMP DP  RH WIND       PRES   REMARKS
GARY*          LGT RAIN  52 N/A N/A N5        30.22S
SOUTH BEND     LGT RAIN  59  57  93 E3        30.23R FOG
6HR MIN TEMP:  57; 6HR MAX TEMP:  62; 6HR PCP:  0.62;

ELKHART*       RAIN      57  57 100 CALM      30.23R
GOSHEN         LGT RAIN  61  59  93 SE7       30.22R FOG
6HR MIN TEMP:  56; 6HR MAX TEMP:  61; 6HR PCP:  0.25;

ANGOLA*        CLOUDY    57  57 100 E8        30.24R
FORT WAYNE     CLOUDY    60  60 100 CALM      30.23R FOG
6HR MIN TEMP:  55; 6HR MAX TEMP:  60; 6HR PCP:  0.27;

PERU/GRISSOM   CLOUDY    62  60  94 SE2       30.21R
6HR MIN TEMP:  61; 6HR MAX TEMP:  63; 6HR PCP:  0.26;


$$
INZ028>050-051300-
CENTRAL INDIANA

CITY           SKY/WX    TMP DP  RH WIND       PRES   REMARKS
LAFAYETTE      CLOUDY    60  59  96 E3        30.19R FOG
6HR MIN TEMP:  59; 6HR MAX TEMP:  62;

KOKOMO*        CLOUDY    63  61  94 S3        30.22R
6HR MIN TEMP:  61; 6HR MAX TEMP:  63; 6HR PCP:  0.09;

MUNCIE*        CLOUDY    63  59  87 S7        30.23R
6HR MIN TEMP:  61; 6HR MAX TEMP:  63; 6HR PCP:  0.01;

INDIANAPOLIS   PTSUNNY   65  56  72 S7        30.21R
6HR MIN TEMP:  62; 6HR MAX TEMP:  65;


$$
MIZ043>046-050>051-056>058-064>065-071>073-077>080-051300-
SOUTHWEST LOWER MICHIGAN

CITY           SKY/WX    TMP DP  RH WIND       PRES   REMARKS
BATTLE CREEK   RAIN      54  49  83 E8        30.26S
6HR MIN TEMP:  54; 6HR MAX TEMP:  58; 6HR PCP:  0.15;

BENTON HARBOR  RAIN      52  52 100 NE5       30.23R FOG
6HR MIN TEMP:  49; 6HR MAX TEMP:  56; 6HR PCP:  0.44;

COLDWATER*     RAIN      55  50  82 E8        30.25R
6HR MIN TEMP:  53; 6HR MAX TEMP:  58;

HILLSDALE*     CLOUDY    58  40  51 E13       30.26S
6HR MIN TEMP:  54; 6HR MAX TEMP:  59;

HOLLAND        LGT RAIN  55  45  68 E7        30.27R
6HR MIN TEMP:  51; 6HR MAX TEMP:  56; 6HR PCP: TRACE;

GRAND RAPIDS   LGT RAIN  54  42  64 NE10      30.28R
6HR MIN TEMP:  54; 6HR MAX TEMP:  56; 6HR PCP: TRACE;

KALAMAZOO      LGT RAIN  53  50  89 E3        30.25R FOG
6HR MIN TEMP:  53; 6HR MAX TEMP:  60; 6HR PCP:  0.20;

STURGIS*       RAIN      57  55  94 E5        30.23R
THREE RIVERS*  LGT RAIN  55  52  91 CALM      30.24R

$$
OHZ001>008-015>018-024>025-051300-
NORTHWEST OHIO

CITY           SKY/WX    TMP DP  RH WIND       PRES   REMARKS
DEFIANCE       LGT RAIN  61  59  93 CALM      30.25R VSB 1
6HR MIN TEMP:  59; 6HR MAX TEMP:  62; 6HR PCP:  0.10;

FINDLAY        LGT RAIN  62  59  90 W5        30.25R FOG
6HR MIN TEMP:  59; 6HR MAX TEMP:  62; 6HR PCP:  0.02;

TOLEDO EXPRESS CLOUDY    58  50  75 E17       30.26R
6HR MIN TEMP:  58; 6HR MAX TEMP:  61;

TOLEDO METCALF CLOUDY    58  48  69 NE9       30.28R
6HR MIN TEMP:  58; 6HR MAX TEMP:  61;

LIMA           CLOUDY    61  60  97 CALM      30.25S FOG
6HR MIN TEMP:  59; 6HR MAX TEMP:  62; 6HR PCP:  0.19;


$$
AND FOR LAKE MICHIGAN COASTAL AND OPEN LAKE BUOY OBSERVATIONS

STATION/POSITION TEMP    WIND        PRES    VSBY  WAVE
                 AIR SEA DIR/SP/G                  HT/PER
                 (F)     (DEG/KT/KT) (MB)    (MI)  (FT/S)
CALUMET HARBOR    48     350/  7/ 10   N/A
MICHIGAN CITY     48     320/  8/ 10   N/A
BURNS HARBOR      48      80/ 10/ 11 1023.4F
SAINT JOSEPH      54      20/  2/  6 1023.4S
4 MI NW BRIDGMAN  51 49   40/  6/  8   N/A           1
MICHIGAN CITY     48 49   60/  6/  8   N/A           1

$$
&&



USA.gov is the U.S. government's official web portal to all federal, state and local government web resources and services.